TimeMST,TemperatureF,Dew PointF,Humidity,Sea Level PressureIn,VisibilityMPH,Wind Direction,Wind SpeedMPH,Gust SpeedMPH,PrecipitationIn,Events,Conditions,WindDirDegrees,DateUTC
12:53 AM,34.0,27.0,75,30.06,9.0,SSW,12.7,-,0.00,Snow,Light Snow,210,2012-12-07 07:53:00
1:53 AM,34.0,26.1,73,30.08,9.0,SW,13.8,-,0.00,Snow,Light Snow,220,2012-12-07 08:53:00
2:53 AM,34.0,26.1,73,30.09,9.0,SW,12.7,-,0.00,Snow,Light Snow,220,2012-12-07 09:53:00
3:53 AM,33.1,25.0,72,30.09,10.0,SW,9.2,-,0.00,,Clear,220,2012-12-07 10:53:00
4:53 AM,33.1,24.1,70,30.08,9.0,SSW,12.7,-,0.00,Snow,Light Snow,210,2012-12-07 11:53:00
5:53 AM,32.0,24.1,73,30.09,9.0,SSW,11.5,-,0.00,Snow,Light Snow,210,2012-12-07 12:53:00
6:53 AM,30.9,23.0,72,30.11,10.0,SSW,9.2,-,0.00,,Clear,200,2012-12-07 13:53:00
7:53 AM,30.9,21.9,69,30.12,9.0,SSW,10.4,-,N/A,,Clear,200,2012-12-07 14:53:00
8:53 AM,33.1,23.0,66,30.12,10.0,SW,9.2,-,N/A,,Clear,220,2012-12-07 15:53:00
9:53 AM,35.1,25.0,67,30.12,10.0,SSW,8.1,-,N/A,,Overcast,210,2012-12-07 16:53:00
10:53 AM,37.9,24.1,57,30.11,10.0,SW,11.5,-,N/A,,Mostly Cloudy,230,2012-12-07 17:53:00
11:53 AM,39.9,24.1,53,30.08,10.0,WSW,11.5,-,N/A,,Clear,240,2012-12-07 18:53:00
12:53 PM,42.1,21.9,45,30.06,10.0,SW,10.4,-,N/A,,Clear,230,2012-12-07 19:53:00
1:53 PM,42.1,24.1,49,30.02,10.0,WSW,11.5,-,N/A,,Clear,250,2012-12-07 20:53:00
2:53 PM,43.0,24.1,47,30.00,10.0,West,11.5,-,N/A,,Clear,270,2012-12-07 21:53:00
3:53 PM,42.1,24.1,49,29.99,10.0,West,6.9,-,N/A,,Clear,280,2012-12-07 22:53:00
4:53 PM,39.0,25.0,57,30.00,10.0,Calm,Calm,-,N/A,,Clear,0,2012-12-07 23:53:00
5:53 PM,33.1,26.1,75,30.00,10.0,Calm,Calm,-,N/A,,Scattered Clouds,0,2012-12-08 00:53:00
6:53 PM,35.1,26.1,70,29.99,10.0,South,6.9,-,N/A,,Overcast,180,2012-12-08 01:53:00
7:53 PM,36.0,26.1,67,29.97,10.0,SSW,5.8,-,N/A,,Mostly Cloudy,200,2012-12-08 02:53:00
8:53 PM,34.0,26.1,73,29.95,10.0,South,9.2,-,N/A,,Scattered Clouds,190,2012-12-08 03:53:00
9:53 PM,36.0,27.0,70,29.94,10.0,SSW,8.1,-,N/A,,Clear,210,2012-12-08 04:53:00
10:53 PM,36.0,26.1,67,29.94,10.0,WSW,8.1,-,N/A,,Mostly Cloudy,240,2012-12-08 05:53:00
11:53 PM,37.0,25.0,62,29.93,10.0,SW,12.7,-,N/A,,Overcast,230,2012-12-08 06:53:00